EW6107 Weather Reports


time (UTC)temp
C
wind
direction
speed
KPH
gust
KPH
rain 1hr
cm
rain 24hr
cm
rain mn
cm
humidity
%
barometer
mb
20191017153601 12 171 14.5 41.8 0.00 2.36 0.00 59 1003.9
20191017153102 12 131 9.7 25.7 0.00 2.39 0.00 59 1004.0
20191017152603 12 89 6.4 24.1 0.00 2.41 0.00 59 1004.1
20191017152103 12 123 6.4 37.0 0.00 2.44 0.00 59 1004.2
20191017151603 12 106 9.7 37.0 0.00 2.44 0.00 58 1004.0
20191017151102 12 86 8.0 27.4 0.00 2.44 0.00 59 1004.0
20191017150602 12 155 8.0 27.4 0.00 2.44 0.00 58 1004.0
20191017150102 12 149 4.8 20.9 0.00 2.44 0.00 60 1004.0
20191017145601 12 157 1.6 22.5 0.00 2.44 0.00 60 1003.9
20191017145102 12 235 8.0 20.9 0.00 2.44 0.00 61 1004.0
20191017144602 12 157 8.0 30.6 0.00 2.44 0.00 60 1003.9
20191017144102 12 151 9.7 30.6 0.00 2.44 0.00 60 1003.7
20191017143603 12 144 3.2 25.7 0.00 2.44 0.00 60 1003.7
20191017143103 12 144 9.7 27.4 0.00 2.44 0.00 60 1003.4
20191017142603 12 96 16.1 27.4 0.00 2.44 0.00 59 1003.4
20191017142102 12 114 8.0 22.5 0.00 2.44 0.00 60 1003.6
20191017141602 12 169 6.4 24.1 0.00 2.44 0.00 60 1003.1
20191017141102 12 131 9.7 24.1 0.00 2.44 0.00 61 1003.3
20191017140601 12 133 4.8 19.3 0.00 2.44 0.00 62 1003.2
20191017140101 11 118 3.2 37.0 0.00 2.44 0.00 63 1003.2
20191017135603 11 182 8.0 37.0 0.00 2.44 0.00 61 1003.0
20191017135101 11 185 9.7 27.4 0.00 2.44 0.00 61 1003.0
20191017134603 11 158 8.0 37.0 0.00 2.44 0.00 61 1003.1
20191017134102 11 127 8.0 29.0 0.00 2.44 0.00 61 1003.1
20191017133602 11 135 8.0 30.6 0.00 2.44 0.00 61 1002.9
20191017133102 11 135 12.9 33.8 0.00 2.44 0.00 63 1002.9
20191017132603 11 244 9.7 33.8 0.00 2.44 0.00 62 1002.9
20191017132101 11 155 6.4 35.4 0.00 2.44 0.00 62 1002.8
20191017131602 11 130 11.3 35.4 0.00 2.44 0.00 62 1002.9
20191017131102 11 141 8.0 32.2 0.00 2.44 0.00 63 1002.9
20191017130602 11 152 11.3 43.5 0.00 2.44 0.00 63 1002.6
20191017130103 11 90 16.1 43.5 0.00 2.44 0.00 63 1002.6
20191017125603 11 100 16.1 32.2 0.00 2.44 0.00 63 1002.7
20191017125102 11 151 11.3 29.0 0.00 2.44 0.00 64 1002.8
20191017124602 11 212 9.7 29.0 0.00 2.44 0.00 64 1002.7
20191017124101 10 161 9.7 30.6 0.00 2.44 0.00 64 1002.8
20191017123602 10 133 9.7 24.1 0.00 2.44 0.00 64 1002.7
20191017123102 10 145 9.7 35.4 0.00 2.44 0.00 65 1002.7
20191017122601 10 113 12.9 24.1 0.00 2.44 0.00 66 1002.6
20191017122102 10 166 9.7 30.6 0.00 2.44 0.00 66 1002.5
20191017121603 10 111 4.8 30.6 0.00 2.44 0.00 67 1002.7
20191017121102 10 161 9.7 27.4 0.00 2.44 0.00 67 1002.7
20191017120603 10 131 4.8 24.1 0.00 2.44 0.00 68 1002.7
20191017120104 10 152 9.7 27.4 0.00 2.44 0.00 68 1002.6
20191017115603 10 135 1.6 25.7 0.00 2.44 0.00 68 1002.6
20191017115103 10 127 11.3 25.7 0.00 2.44 0.00 68 1002.5
20191017114603 10 176 6.4 22.5 0.00 2.44 0.00 69 1002.4
20191017114103 10 137 3.2 25.7 0.00 2.44 0.00 69 1002.4
20191017113603 10 142 8.0 25.7 0.00 2.44 0.00 69 1002.5
20191017113103 10 145 6.4 20.9 0.00 2.44 0.00 68 1002.5
20191017112603 10 138 4.8 25.7 0.00 2.44 0.00 68 1002.4
20191017112103 10 159 8.0 33.8 0.00 2.44 0.00 68 1002.5
20191017111603 10 123 12.9 20.9 0.00 2.44 0.00 68 1002.4
20191017111103 10 113 3.2 20.9 0.00 2.44 0.00 68 1002.3
20191017110603 10 127 1.6 11.3 0.00 2.44 0.00 68 1002.2
20191017110103 10 182 3.2 11.3 0.00 2.44 0.00 68 1002.2
20191017105603 10 114 3.2 20.9 0.00 2.44 0.00 68 1002.3
20191017105101 10 179 3.2 20.9 0.00 2.44 0.00 68 1002.3
20191017104603 10 131 4.8 16.1 0.00 2.44 0.00 67 1002.2
20191017104102 10 134 6.4 19.3 0.00 2.44 0.00 68 1002.2
20191017103602 10 127 6.4 19.3 0.00 2.44 0.00 68 1002.2
20191017103102 10 154 4.8 17.7 0.00 2.44 0.00 68 1002.2
20191017102602 10 168 4.8 20.9 0.00 2.44 0.00 68 1002.2
20191017102101 9 199 3.2 16.1 0.00 2.44 0.00 69 1002.1
20191017101602 9 162 4.8 9.7 0.00 2.44 0.00 68 1001.9
20191017101102 9 133 1.6 14.5 0.00 2.44 0.00 68 1002.0
20191017100601 10 138 3.2 14.5 0.00 2.44 0.00 68 1001.9
20191017100101 10 107 1.6 19.3 0.00 2.44 0.00 68 1001.8
20191017095602 10 142 6.4 16.1 0.00 2.44 0.00 68 1001.7
20191017095103 10 125 3.2 14.5 0.00 2.44 0.00 69 1001.7
20191017094602 10 142 3.2 16.1 0.00 2.44 0.00 68 1001.7
20191017094103 10 144 6.4 16.1 0.00 2.44 0.00 69 1001.6
20191017093603 10 113 3.2 25.7 0.00 2.44 0.00 67 1001.4
20191017093103 10 144 8.0 25.7 0.00 2.44 0.00 67 1001.4
20191017092603 10 110 11.3 24.1 0.00 2.44 0.00 66 1001.6
20191017092103 10 185 1.6 17.7 0.00 2.44 0.00 66 1001.4
20191017091603 10 144 1.6 24.1 0.00 2.44 0.00 66 1001.4
20191017091102 10 123 9.7 24.1 0.00 2.44 0.00 66 1001.4
20191017090603 10 134 6.4 24.1 0.00 2.44 0.00 65 1001.3
20191017090103 10 278 3.2 24.1 0.00 2.44 0.00 65 1001.4
20191017085602 10 121 6.4 24.1 0.00 2.44 0.00 66 1001.3
20191017085101 10 123 3.2 17.7 0.00 2.44 0.00 65 1001.4
20191017084601 10 138 3.2 17.7 0.00 2.44 0.00 66 1001.2
20191017084102 10 145 3.2 20.9 0.00 2.44 0.00 65 1001.3
20191017083602 10 131 3.2 20.9 0.00 2.44 0.00 66 1001.3
20191017083101 10 130 3.2 16.1 0.00 2.44 0.00 66 1001.3
20191017082602 10 165 6.4 17.7 0.00 2.44 0.00 66 1001.4
20191017082102 10 173 6.4 19.3 0.00 2.44 0.00 69 1001.3
20191017081602 10 113 3.2 17.7 0.00 2.44 0.00 69 1001.2
20191017081101 10 164 3.2 30.6 0.00 2.44 0.00 68 1001.1
20191017080602 11 161 8.0 30.6 0.00 2.44 0.00 68 1001.1
20191017080101 11 220 6.4 19.3 0.00 2.44 0.00 68 1001.2
20191017075601 11 142 3.2 14.5 0.00 2.44 0.00 68 1001.2
20191017075102 11 178 3.2 20.9 0.00 2.44 0.00 68 1001.2
20191017074603 11 152 6.4 20.9 0.00 2.44 0.00 68 1001.1
20191017074103 11 159 4.8 16.1 0.00 2.44 0.00 68 1001.1
20191017073604 11 92 3.2 6.4 0.00 2.44 0.00 69 1000.9
20191017073103 11 180 0.0 9.7 0.00 2.44 0.00 68 1001.1
20191017072603 11 131 3.2 9.7 0.00 2.44 0.00 68 1001.0
20191017072103 11 149 1.6 6.4 0.00 2.44 0.00 68 1001.1
20191017071601 11 147 0.0 22.5 0.00 2.44 0.00 68 1001.0
20191017071059 11 133 1.6 22.5 0.00 2.44 0.00 68 1000.9
20191017070556 11 124 3.2 11.3 0.00 2.44 0.00 68 1001.0
20191017070050 11 144 1.6 11.3 0.00 2.44 0.00 67 1001.0
20191017065546 11 85 1.6 19.3 0.00 2.44 0.00 67 1001.1
20191017065046 11 138 4.8 19.3 0.00 2.44 0.00 67 1001.1
20191017064546 11 142 3.2 25.7 0.00 2.44 0.00 67 1001.1
20191017064043 11 145 11.3 32.2 0.00 2.44 0.00 67 1001.1
20191017063542 11 118 8.0 32.2 0.00 2.44 0.00 67 1001.0
20191017063037 11 137 8.0 32.2 0.00 2.44 0.00 68 1001.0
20191017062536 11 144 8.0 32.2 0.00 2.44 0.00 69 1001.0
20191017062032 11 104 6.4 24.1 0.00 2.44 0.00 68 1001.2
20191017061532 11 144 1.6 24.1 0.00 2.44 0.00 69 1001.2
20191017061030 11 141 8.0 19.3 0.00 2.44 0.00 69 1001.2
20191017060531 11 189 4.8 22.5 0.00 2.44 0.00 69 1001.2
20191017060031 11 117 3.2 22.5 0.00 2.44 0.00 69 1001.2
20191017055531 11 149 3.2 22.5 0.00 2.44 0.00 69 1001.1
20191017055030 11 41 3.2 24.1 0.00 2.44 0.00 69 1001.1
20191017054530 11 138 8.0 24.1 0.00 2.44 0.00 69 1001.2
20191017054031 11 125 11.3 24.1 0.00 2.44 0.00 69 1001.0
20191017053531 11 82 6.4 22.5 0.00 2.44 0.00 69 1001.0
20191017053032 11 56 9.7 22.5 0.00 2.44 0.00 69 1001.1
20191017052532 11 100 4.8 14.5 0.00 2.44 0.00 69 1001.2
20191017052032 11 127 4.8 24.1 0.00 2.44 0.00 69 1001.3
20191017051531 11 172 8.0 24.1 0.00 2.44 0.00 69 1001.2
20191017051031 10 158 4.8 24.1 0.00 2.44 0.00 69 1001.3
20191017050530 10 133 6.4 20.9 0.00 2.44 0.00 70 1001.3
20191017050031 10 116 4.8 20.9 0.00 2.44 0.00 70 1001.2
20191017045529 10 154 6.4 20.9 0.00 2.44 0.00 70 1001.1
20191017045028 10 128 6.4 19.3 0.00 2.44 0.00 70 1001.2
20191017044526 10 131 6.4 19.3 0.00 2.44 0.00 70 1001.2
20191017044014 10 182 4.8 19.3 0.00 2.44 0.00 69 1001.2
20191017043515 10 140 6.4 16.1 0.00 2.44 0.00 69 1001.1
20191017043013 10 137 3.2 22.5 0.00 2.44 0.00 69 1001.3
20191017042513 10 135 6.4 22.5 0.00 2.44 0.00 70 1001.4
20191017042013 10 111 8.0 24.1 0.00 2.44 0.00 69 1001.3
20191017041511 10 131 8.0 24.1 0.00 2.44 0.00 70 1001.4
20191017041011 10 147 3.2 16.1 0.00 2.44 0.00 70 1001.3
20191017040511 10 145 3.2 27.4 0.00 2.44 0.00 70 1001.3
20191017040004 10 134 6.4 27.4 0.00 2.44 0.00 70 1001.4
20191017035503 10 117 6.4 25.7 0.00 2.44 2.44 69 1001.4
20191017035002 10 125 8.0 20.9 0.00 2.44 2.44 70 1001.3
20191017034501 10 120 9.7 20.9 0.00 2.44 2.44 70 1001.3
20191017034001 10 109 4.8 25.7 0.00 2.44 2.44 70 1001.4
20191017033501 10 130 4.8 27.4 0.00 2.44 2.44 70 1001.3
20191017033000 10 111 9.7 27.4 0.00 2.44 2.44 69 1001.5
20191017032501 10 147 8.0 20.9 0.00 2.44 2.44 70 1001.5
20191017032000 10 144 3.2 19.3 0.00 2.44 2.44 71 1001.4
20191017031500 10 90 3.2 56.3 0.00 2.44 2.44 70 1001.4
20191017031001 10 68 6.4 56.3 0.00 2.44 2.44 70 1001.7
20191017030500 10 162 8.0 16.1 0.00 2.44 2.44 70 1001.9
20191017030000 10 109 3.2 19.3 0.00 2.44 2.44 70 1001.9
20191017025459 10 131 6.4 22.5 0.00 2.44 2.44 69 1001.8
20191017025000 10 128 9.7 37.0 0.00 2.44 2.44 69 1001.7
20191017024500 10 110 8.0 30.6 0.00 2.44 2.44 68 1001.5
20191017023959 10 97 6.4 30.6 0.00 2.44 2.44 68 1001.5
20191017023500 10 127 12.9 41.8 0.00 2.44 2.44 68 1001.4
20191017022959 10 90 12.9 41.8 0.00 2.44 2.44 68 1001.2
20191017022459 10 140 9.7 32.2 0.00 2.44 2.44 68 1000.9
20191017022001 10 100 17.7 29.0 0.00 2.44 2.44 68 1000.9
20191017021500 10 141 8.0 30.6 0.00 2.44 2.44 69 1001.0
20191017020959 10 154 11.3 30.6 0.00 2.44 2.44 68 1000.9
20191017020500 10 92 8.0 29.0 0.00 2.44 2.44 68 1001.1
20191017020000 10 107 9.7 32.2 0.00 2.44 2.44 68 1001.0
20191017015459 10 147 6.4 32.2 0.00 2.44 2.44 68 1001.0
20191017014959 10 90 9.7 25.7 0.00 2.44 2.44 68 1001.0
20191017014458 10 221 4.8 33.8 0.00 2.44 2.44 68 1001.0
20191017013958 10 103 9.7 41.8 0.00 2.44 2.44 68 1001.3
20191017013458 10 102 9.7 41.8 0.00 2.44 2.44 69 1001.3
20191017012958 10 166 6.4 24.1 0.00 2.44 2.44 68 1001.6
20191017012458 10 207 3.2 24.1 0.00 2.44 2.44 68 1001.8
20191017011958 10 138 6.4 20.9 0.00 2.44 2.44 68 1002.0
20191017011457 10 189 1.6 19.3 0.00 2.44 2.44 68 1002.0
20191017010957 10 196 3.2 20.9 0.00 2.44 2.44 67 1001.9
20191017010457 10 137 6.4 22.5 0.00 2.44 2.44 67 1001.9
20191017005957 11 147 3.2 22.5 0.00 2.44 2.44 68 1001.8
20191017005457 11 171 1.6 22.5 0.00 2.44 2.44 68 1002.0
20191017004957 11 116 3.2 22.5 0.00 2.44 2.44 68 1001.9
20191017004456 11 159 4.8 20.9 0.00 2.44 2.44 67 1002.0
20191017003957 11 188 8.0 22.5 0.00 2.44 2.44 67 1002.1
20191017003457 11 192 8.0 22.5 0.00 2.44 2.44 67 1002.0
20191017002957 11 96 6.4 25.7 0.00 2.44 2.44 67 1002.1
20191017002457 11 125 8.0 33.8 0.00 2.44 2.44 68 1002.2
20191017001956 11 149 9.7 33.8 0.00 2.44 2.44 68 1002.0
20191017001456 11 168 8.0 22.5 0.00 2.44 2.44 69 1002.0
20191017000956 11 140 12.9 20.9 0.00 2.44 2.44 69 1001.7
20191017000456 11 224 6.4 17.7 0.00 2.44 2.44 70 1001.5
20191016235956 11 107 4.8 20.9 0.00 2.44 2.44 71 1001.8
20191016235456 11 165 4.8 20.9 0.00 2.44 2.44 71 1001.9
20191016234955 11 147 0.0 9.7 0.00 2.44 2.44 72 1002.2
20191016234456 11 141 0.0 20.9 0.00 2.44 2.44 72 1002.1
20191016233955 11 127 4.8 20.9 0.00 2.44 2.44 71 1002.0
20191016233456 11 44 1.6 20.9 0.00 2.44 2.44 71 1001.8
20191016232955 11 152 4.8 20.9 0.00 2.44 2.44 71 1002.0
20191016232455 11 135 0.0 14.5 0.00 2.44 2.44 71 1002.1
20191016231955 11 141 3.2 6.4 0.00 2.44 2.44 71 1002.1
20191016231455 11 134 1.6 14.5 0.00 2.44 2.44 71 1002.1
20191016230955 12 148 3.2 14.5 0.00 2.44 2.44 71 1002.1
20191016230455 12 157 0.0 22.5 0.00 2.44 2.44 70 1002.1
20191016225955 11 145 1.6 22.5 0.00 2.44 2.44 72 1002.1
20191016225455 11 202 6.4 14.5 0.00 2.44 2.44 72 1002.0
20191016224954 11 135 3.2 4.8 0.00 2.44 2.44 72 1002.1
20191016224454 12 188 0.0 24.1 0.00 2.44 2.44 72 1002.0
20191016223953 12 157 0.0 24.1 0.00 2.44 2.44 71 1002.1
20191016223454 12 165 0.0 16.1 0.00 2.44 2.44 71 1002.1
20191016222953 12 137 1.6 16.1 0.00 2.44 2.44 71 1002.1
20191016222453 12 155 3.2 16.1 0.00 2.44 2.44 72 1002.3
20191016221953 12 100 0.0 14.5 0.00 2.44 2.44 72 1002.2
20191016221450 12 168 3.2 25.7 0.00 2.44 2.44 73 1002.1
20191016220950 13 161 6.4 19.3 0.00 2.44 2.44 74 1002.1
20191016220445 13 142 4.8 19.3 0.00 2.44 2.44 72 1002.1
20191016215946 13 133 6.4 20.9 0.00 2.44 2.44 74 1002.0
20191016215444 13 158 1.6 20.9 0.00 2.44 2.44 74 1001.8
20191016214941 13 97 1.6 24.1 0.00 2.44 2.44 75 1001.8
20191016214440 14 258 6.4 24.1 0.00 2.44 2.44 73 1001.7
20191016213937 14 162 4.8 17.7 0.00 2.44 2.44 75 1001.6
20191016213437 14 137 3.2 17.7 0.00 2.44 2.44 77 1001.7
20191016212937 14 113 0.0 6.4 0.00 2.44 2.44 79 1001.7
20191016212437 14 125 1.6 11.3 0.00 2.44 2.44 81 1001.8
20191016211937 14 145 1.6 19.3 0.00 2.44 2.44 82 1001.8
20191016211435 13 140 1.6 6.4 0.00 2.44 2.44 84 1001.9
20191016210936 13 133 1.6 6.4 0.00 2.44 2.44 85 1001.9
20191016210435 13 147 0.0 33.8 0.00 2.44 2.44 86 1001.7
20191016205931 13 151 6.4 33.8 0.00 2.44 2.44 86 1001.7
20191016205431 13 118 3.2 33.8 0.00 2.44 2.44 86 1001.6
20191016204931 13 175 9.7 33.8 0.00 2.44 2.44 90 1001.7
20191016204430 13 140 3.2 8.0 0.00 2.44 2.44 92 1001.7
20191016203931 13 149 0.0 0.0 0.03 2.44 2.44 93 1001.5
20191016203431 13 137 0.0 0.0 0.03 2.44 2.44 93 1001.4
20191016202931 13 135 0.0 0.0 0.03 2.44 2.44 93 1001.4
20191016202432 13 135 0.0 3.2 0.03 2.44 2.44 93 1001.5
20191016201931 13 135 0.0 4.8 0.05 2.44 2.44 93 1001.6
20191016201430 13 124 0.0 3.2 0.05 2.44 2.44 93 1001.7
20191016200931 13 127 0.0 3.2 0.10 2.44 2.44 93 1002.0
20191016200431 13 130 0.0 3.2 0.20 2.44 2.44 93 1002.1
20191016195931 13 125 0.0 6.4 0.25 2.44 2.44 94 1002.2
20191016195430 13 135 1.6 8.0 0.28 2.44 2.44 94 1002.3
20191016194931 13 152 3.2 11.3 0.30 2.44 2.44 94 1002.3
20191016194430 13 138 4.8 11.3 0.33 2.41 2.41 94 1002.6
20191016193932 13 138 1.6 9.7 0.38 2.41 2.41 94 1002.5
20191016193432 13 142 1.6 8.0 0.51 2.41 2.41 95 1002.5
20191016192931 13 131 3.2 8.0 0.58 2.41 2.41 94 1002.6
20191016192431 13 134 0.0 4.8 0.61 2.39 2.39 95 1002.7
20191016191931 13 138 0.0 8.0 0.71 2.39 2.39 95 1002.5
20191016191431 13 141 0.0 8.0 0.74 2.36 2.36 94 1002.6
20191016190930 14 121 1.6 4.8 0.74 2.31 2.31 95 1002.9
20191016190430 14 124 0.0 3.2 0.69 2.21 2.21 94 1003.1
20191016185931 14 131 0.0 4.8 0.69 2.18 2.18 94 1003.1
20191016185431 14 130 0.0 4.8 0.71 2.16 2.16 94 1003.0
20191016184931 14 144 0.0 3.2 0.71 2.13 2.13 94 1003.1
20191016184430 14 154 0.0 6.4 0.71 2.08 2.08 94 1003.2
20191016183932 14 134 1.6 6.4 0.64 1.98 1.98 94 1003.4
20191016183431 14 152 0.0 0.0 0.56 1.88 1.88 94 1003.6
20191016182931 14 152 0.0 1.6 0.56 1.83 1.83 94 1003.4
20191016182431 14 152 0.0 1.6 0.51 1.75 1.75 94 1003.6
20191016181931 14 135 0.0 0.0 0.46 1.68 1.68 94 1003.7
20191016181431 14 133 0.0 0.0 0.48 1.63 1.63 94 1003.8
20191016180931 14 133 0.0 0.0 0.48 1.57 1.57 94 1003.8
20191016180808 14 133 0.0 4.8 0.48 1.52 1.52 94 1003.8
20191016175930 14 130 0.0 8.0 0.48 1.47 1.47 94 1004.1
20191016175431 14 117 3.2 14.5 0.51 1.45 1.45 94 1004.4
20191016174931 14 131 4.8 11.3 0.51 1.40 1.40 94 1004.7
20191016174431 14 120 3.2 9.7 0.56 1.37 1.37 94 1004.8
20191016173930 14 138 1.6 11.3 0.64 1.35 1.35 94 1005.0
20191016173431 14 118 4.8 9.7 0.66 1.32 1.32 94 1005.1
20191016172923 14 133 3.2 9.7 0.66 1.27 1.27 94 1004.9
20191016172420 14 224 1.6 9.7 0.74 1.24 1.24 94 1004.7
20191016171921 14 134 3.2 14.5 0.74 1.19 1.19 94 1004.8
20191016171421 14 336 3.2 14.5 0.76 1.14 1.14 94 1004.9
20191016170922 14 323 3.2 9.7 0.76 1.09 1.09 94 1005.1
20191016170419 14 148 1.6 9.7 0.71 1.02 1.02 94 1005.3
20191016165919 14 142 1.6 9.7 0.71 0.97 0.97 94 1005.7
20191016165419 14 49 3.2 9.7 0.71 0.94 0.94 94 1005.8
20191016164912 14 154 3.2 8.0 0.69 0.86 0.86 94 1005.7
20191016164407 14 140 0.0 8.0 0.64 0.79 0.79 94 1006.4
20191016163907 14 133 3.2 8.0 0.58 0.69 0.69 94 1006.3
20191016163404 14 127 0.0 8.0 0.56 0.64 0.64 94 1006.6
20191016162905 14 123 1.6 1.6 0.51 0.56 0.56 94 1006.6
20191016162405 14 140 0.0 0.0 0.46 0.48 0.48 94 1006.9
20191016161903 14 140 0.0 0.0 0.41 0.41 0.41 93 1006.8
20191016161403 14 140 0.0 1.6 0.36 0.36 0.36 93 1006.9
20191016160902 14 140 0.0 0.0 0.30 0.30 0.30 93 1006.9
20191016160402 14 140 0.0 1.6 0.28 0.28 0.28 93 1007.1
20191016155902 14 140 0.0 3.2 0.25 0.25 0.25 93 1007.1
20191016155401 15 140 1.6 1.6 0.23 0.23 0.23 93 1007.2
20191016154902 15 138 0.0 1.6 0.18 0.18 0.18 93 1007.2
20191016154401 15 138 0.0 1.6 0.13 0.13 0.13 93 1007.3
20191016153902 15 138 0.0 1.6 0.10 0.10 0.10 93 1007.5